Time,TemperatureF,DewpointF,PressureIn,WindDirection,WindDirectionDegrees,WindSpeedMPH,WindSpeedGustMPH,Humidity,HourlyPrecipIn,Conditions,Clouds,dailyrainin,SoftwareType,DateUTC
2013-09-25 00:05:00,74.4,72.0,29.86,SSW,205,0.0,0.0,93,0.00,,,0.00,weatherlink.com 1.10,2013-09-25 04:05:00,
2013-09-25 00:20:00,74.5,72.0,29.86,SW,222,0.0,1.0,93,0.00,,,0.00,weatherlink.com 1.10,2013-09-25 04:20:00,
2013-09-25 00:35:00,74.6,73.0,29.86,SW,229,0.0,2.0,93,0.00,,,0.00,weatherlink.com 1.10,2013-09-25 04:35:00,
2013-09-25 00:50:00,74.7,73.0,29.85,SSW,205,0.0,1.0,93,0.00,,,0.00,weatherlink.com 1.10,2013-09-25 04:50:00,
2013-09-25 01:05:00,74.8,73.0,29.85,WSW,248,0.0,0.0,93,0.00,,,0.00,weatherlink.com 1.10,2013-09-25 05:05:00,
2013-09-25 01:20:00,74.9,73.0,29.85,SSW,197,0.0,0.0,93,0.00,,,0.00,weatherlink.com 1.10,2013-09-25 05:20:00,
2013-09-25 01:36:00,75.0,73.0,29.84,SSW,205,0.0,3.0,93,0.00,,,0.00,weatherlink.com 1.10,2013-09-25 05:36:00,
2013-09-25 01:51:00,75.0,73.0,29.84,SW,228,3.0,3.0,93,0.00,,,0.00,weatherlink.com 1.10,2013-09-25 05:51:00,
2013-09-25 02:06:00,75.1,73.0,29.84,SW,217,1.0,2.0,93,0.00,,,0.00,weatherlink.com 1.10,2013-09-25 06:06:00,
2013-09-25 02:21:00,75.5,73.0,29.83,NW,316,0.0,4.0,93,0.00,,,0.00,weatherlink.com 1.10,2013-09-25 06:21:00,
2013-09-25 02:36:00,75.7,74.0,29.83,SW,226,0.0,1.0,93,0.00,,,0.00,weatherlink.com 1.10,2013-09-25 06:36:00,
2013-09-25 02:51:00,76.0,74.0,29.83,WSW,256,0.0,0.0,93,0.00,,,0.00,weatherlink.com 1.10,2013-09-25 06:51:00,
2013-09-25 03:06:00,76.1,74.0,29.83,SSW,211,0.0,0.0,93,0.00,,,0.00,weatherlink.com 1.10,2013-09-25 07:06:00,
2013-09-25 03:21:00,75.9,74.0,29.82,SW,231,0.0,0.0,93,0.00,,,0.00,weatherlink.com 1.10,2013-09-25 07:21:00,
2013-09-25 03:36:00,76.0,74.0,29.83,West,278,0.0,0.0,93,0.00,,,0.00,weatherlink.com 1.10,2013-09-25 07:36:00,
2013-09-25 03:51:00,76.1,74.0,29.83,WSW,256,0.0,0.0,93,0.00,,,0.00,weatherlink.com 1.10,2013-09-25 07:51:00,
2013-09-25 04:06:00,75.9,74.0,29.82,WNW,295,0.0,0.0,93,0.00,,,0.00,weatherlink.com 1.10,2013-09-25 08:06:00,
2013-09-25 04:21:00,75.5,73.0,29.81,NNW,339,0.0,0.0,93,0.00,,,0.00,weatherlink.com 1.10,2013-09-25 08:21:00,
2013-09-25 04:36:00,75.3,73.0,29.80,SE,142,0.0,0.0,93,0.02,,,0.02,weatherlink.com 1.10,2013-09-25 08:36:00,
2013-09-25 04:51:00,75.1,73.0,29.80,West,271,0.0,0.0,93,0.05,,,0.05,weatherlink.com 1.10,2013-09-25 08:51:00,
2013-09-25 05:06:00,74.6,73.0,29.81,NW,309,0.0,0.0,93,0.08,,,0.08,weatherlink.com 1.10,2013-09-25 09:06:00,
2013-09-25 05:21:00,74.0,72.0,29.81,West,281,0.0,0.0,93,0.11,,,0.11,weatherlink.com 1.10,2013-09-25 09:21:00,
2013-09-25 05:36:00,73.8,72.0,29.82,WSW,254,1.0,3.0,93,0.11,,,0.13,weatherlink.com 1.10,2013-09-25 09:36:00,
2013-09-25 05:51:00,73.6,72.0,29.82,WNW,295,2.0,2.0,93,0.08,,,0.13,weatherlink.com 1.10,2013-09-25 09:51:00,
2013-09-25 06:06:00,73.7,72.0,29.82,WNW,284,5.0,7.0,93,0.04,,,0.13,weatherlink.com 1.10,2013-09-25 10:06:00,
2013-09-25 06:21:00,73.5,71.0,29.82,NW,307,6.0,7.0,93,0.03,,,0.14,weatherlink.com 1.10,2013-09-25 10:21:00,
2013-09-25 06:36:00,73.4,71.0,29.82,WSW,254,0.0,3.0,93,0.01,,,0.14,weatherlink.com 1.10,2013-09-25 10:36:00,
2013-09-25 06:51:00,73.3,71.0,29.83,WNW,283,3.0,4.0,93,0.02,,,0.15,weatherlink.com 1.10,2013-09-25 10:51:00,
2013-09-25 07:06:00,73.4,72.0,29.84,West,266,2.0,7.0,94,0.02,,,0.15,weatherlink.com 1.10,2013-09-25 11:06:00,
2013-09-25 07:21:00,73.4,72.0,29.84,WNW,293,4.0,5.0,94,0.02,,,0.16,weatherlink.com 1.10,2013-09-25 11:21:00,
2013-09-25 07:36:00,73.3,72.0,29.85,WSW,249,3.0,7.0,94,0.02,,,0.16,weatherlink.com 1.10,2013-09-25 11:36:00,
2013-09-25 07:51:00,73.3,71.0,29.85,WSW,242,2.0,9.0,93,0.01,,,0.16,weatherlink.com 1.10,2013-09-25 11:51:00,
2013-09-25 08:06:00,73.4,71.0,29.86,WNW,295,2.0,8.0,93,0.02,,,0.17,weatherlink.com 1.10,2013-09-25 12:06:00,
2013-09-25 08:21:00,73.5,71.0,29.87,West,273,5.0,9.0,93,0.01,,,0.17,weatherlink.com 1.10,2013-09-25 12:21:00,
2013-09-25 08:36:00,73.5,71.0,29.87,WNW,297,2.0,12.0,92,0.01,,,0.17,weatherlink.com 1.10,2013-09-25 12:36:00,
2013-09-25 08:52:00,73.1,71.0,29.88,West,271,3.0,12.0,92,0.02,,,0.18,weatherlink.com 1.10,2013-09-25 12:52:00,
2013-09-25 09:06:00,72.6,70.0,29.89,SW,226,0.0,8.0,92,0.04,,,0.21,weatherlink.com 1.10,2013-09-25 13:06:00,
2013-09-25 09:21:00,72.0,70.0,29.89,West,266,1.0,5.0,92,0.06,,,0.23,weatherlink.com 1.10,2013-09-25 13:21:00,
2013-09-25 09:36:00,71.6,69.0,29.90,SSW,205,0.0,5.0,92,0.09,,,0.26,weatherlink.com 1.10,2013-09-25 13:36:00,
2013-09-25 09:51:00,71.3,69.0,29.89,SW,221,1.0,2.0,92,0.12,,,0.30,weatherlink.com 1.10,2013-09-25 13:51:00,
2013-09-25 10:06:00,71.5,69.0,29.88,South,169,1.0,3.0,93,0.12,,,0.33,weatherlink.com 1.10,2013-09-25 14:06:00,
2013-09-25 10:21:00,72.1,70.0,29.88,South,169,3.0,3.0,93,0.11,,,0.34,weatherlink.com 1.10,2013-09-25 14:21:00,
2013-09-25 10:36:00,71.8,69.0,29.86,WSW,242,0.0,4.0,92,0.10,,,0.36,weatherlink.com 1.10,2013-09-25 14:36:00,
2013-09-25 10:51:00,72.0,70.0,29.86,WSW,257,1.0,3.0,92,0.06,,,0.37,weatherlink.com 1.10,2013-09-25 14:51:00,
2013-09-25 11:06:00,71.9,70.0,29.87,WNW,295,0.0,0.0,92,0.04,,,0.37,weatherlink.com 1.10,2013-09-25 15:06:00,
2013-09-25 11:21:00,71.8,69.0,29.85,SW,222,1.0,5.0,92,0.04,,,0.38,weatherlink.com 1.10,2013-09-25 15:21:00,
2013-09-25 11:36:00,71.9,70.0,29.83,NE,44,1.0,5.0,92,0.02,,,0.38,weatherlink.com 1.10,2013-09-25 15:36:00,
2013-09-25 11:52:00,71.9,69.0,29.85,WSW,242,1.0,5.0,91,0.02,,,0.39,weatherlink.com 1.10,2013-09-25 15:52:00,
2013-09-25 12:06:00,71.6,69.0,29.85,SW,231,0.0,4.0,91,0.02,,,0.39,weatherlink.com 1.10,2013-09-25 16:06:00,
2013-09-25 12:22:00,72.2,70.0,29.84,SW,231,1.0,6.0,91,0.01,,,0.39,weatherlink.com 1.10,2013-09-25 16:22:00,
2013-09-25 12:37:00,72.4,70.0,29.84,West,281,1.0,7.0,91,0.01,,,0.39,weatherlink.com 1.10,2013-09-25 16:37:00,
2013-09-25 12:52:00,72.7,70.0,29.82,SW,219,4.0,8.0,91,0.00,,,0.39,weatherlink.com 1.10,2013-09-25 16:52:00,
2013-09-25 13:07:00,73.3,70.0,29.82,West,262,5.0,8.0,90,0.00,,,0.39,weatherlink.com 1.10,2013-09-25 17:07:00,
2013-09-25 13:22:00,73.6,71.0,29.83,SW,214,0.0,11.0,90,0.00,,,0.39,weatherlink.com 1.10,2013-09-25 17:22:00,
2013-09-25 13:37:00,74.2,71.0,29.83,West,267,2.0,8.0,89,0.00,,,0.39,weatherlink.com 1.10,2013-09-25 17:37:00,
2013-09-25 13:52:00,74.1,70.0,29.82,WSW,249,0.0,7.0,88,0.00,,,0.39,weatherlink.com 1.10,2013-09-25 17:52:00,
2013-09-25 14:07:00,74.8,71.0,29.80,West,276,0.0,5.0,88,0.00,,,0.39,weatherlink.com 1.10,2013-09-25 18:07:00,
2013-09-25 14:22:00,76.2,72.0,29.80,West,259,3.0,5.0,86,0.00,,,0.39,weatherlink.com 1.10,2013-09-25 18:22:00,
2013-09-25 14:37:00,77.1,72.0,29.80,SW,218,0.0,6.0,84,0.00,,,0.39,weatherlink.com 1.10,2013-09-25 18:37:00,
2013-09-25 14:52:00,77.5,73.0,29.79,SW,228,0.0,6.0,85,0.00,,,0.39,weatherlink.com 1.10,2013-09-25 18:52:00,
2013-09-25 15:07:00,77.9,73.0,29.79,West,260,2.0,7.0,84,0.00,,,0.39,weatherlink.com 1.10,2013-09-25 19:07:00,
2013-09-25 15:22:00,78.2,73.0,29.79,SW,214,3.0,7.0,84,0.00,,,0.39,weatherlink.com 1.10,2013-09-25 19:22:00,
2013-09-25 15:37:00,79.3,73.0,29.79,WSW,249,3.0,7.0,81,0.00,,,0.39,weatherlink.com 1.10,2013-09-25 19:37:00,
2013-09-25 15:52:00,80.0,73.0,29.79,West,267,2.0,7.0,79,0.00,,,0.39,weatherlink.com 1.10,2013-09-25 19:52:00,
2013-09-25 16:07:00,80.2,73.0,29.79,WNW,287,0.0,9.0,78,0.00,,,0.39,weatherlink.com 1.10,2013-09-25 20:07:00,
2013-09-25 16:22:00,81.3,74.0,29.79,West,274,1.0,6.0,78,0.00,,,0.39,weatherlink.com 1.10,2013-09-25 20:22:00,
2013-09-25 16:37:00,81.5,74.0,29.79,WSW,245,0.0,8.0,79,0.00,,,0.39,weatherlink.com 1.10,2013-09-25 20:37:00,
2013-09-25 16:52:00,81.2,74.0,29.79,NW,309,3.0,7.0,78,0.00,,,0.39,weatherlink.com 1.10,2013-09-25 20:52:00,
2013-09-25 17:07:00,80.7,74.0,29.79,WSW,240,1.0,4.0,80,0.00,,,0.39,weatherlink.com 1.10,2013-09-25 21:07:00,
2013-09-25 17:22:00,80.8,75.0,29.79,West,277,0.0,4.0,81,0.00,,,0.39,weatherlink.com 1.10,2013-09-25 21:22:00,
2013-09-25 17:37:00,80.3,74.0,29.79,WSW,253,0.0,6.0,82,0.00,,,0.39,weatherlink.com 1.10,2013-09-25 21:37:00,
2013-09-25 17:52:00,80.3,74.0,29.79,SW,235,0.0,6.0,82,0.00,,,0.39,weatherlink.com 1.10,2013-09-25 21:52:00,
2013-09-25 18:07:00,79.6,74.0,29.80,NNW,339,0.0,5.0,82,0.00,,,0.39,weatherlink.com 1.10,2013-09-25 22:07:00,
2013-09-25 18:22:00,78.8,74.0,29.80,SW,215,3.0,3.0,84,0.00,,,0.39,weatherlink.com 1.10,2013-09-25 22:22:00,
2013-09-25 18:37:00,78.1,73.0,29.80,SSW,204,0.0,3.0,85,0.00,,,0.39,weatherlink.com 1.10,2013-09-25 22:37:00,
2013-09-25 18:52:00,77.6,73.0,29.80,SSW,208,0.0,4.0,86,0.00,,,0.39,weatherlink.com 1.10,2013-09-25 22:52:00,
2013-09-25 19:07:00,77.0,73.0,29.80,SSW,212,0.0,1.0,87,0.00,,,0.39,weatherlink.com 1.10,2013-09-25 23:07:00,
2013-09-25 19:22:00,76.4,73.0,29.80,SW,219,0.0,0.0,88,0.00,,,0.39,weatherlink.com 1.10,2013-09-25 23:22:00,
2013-09-25 19:37:00,75.9,72.0,29.81,SW,236,0.0,1.0,88,0.00,,,0.39,weatherlink.com 1.10,2013-09-25 23:37:00,
2013-09-25 19:52:00,75.4,72.0,29.81,SW,233,0.0,1.0,89,0.00,,,0.39,weatherlink.com 1.10,2013-09-25 23:52:00,
2013-09-25 20:07:00,75.0,72.0,29.81,SW,233,0.0,1.0,89,0.00,,,0.39,weatherlink.com 1.10,2013-09-26 00:07:00,
2013-09-25 20:22:00,74.6,72.0,29.81,SW,233,0.0,0.0,90,0.00,,,0.39,weatherlink.com 1.10,2013-09-26 00:22:00,
2013-09-25 20:37:00,74.5,72.0,29.81,SW,233,0.0,0.0,90,0.00,,,0.39,weatherlink.com 1.10,2013-09-26 00:37:00,
2013-09-25 20:52:00,74.3,71.0,29.82,SW,233,0.0,1.0,90,0.00,,,0.39,weatherlink.com 1.10,2013-09-26 00:52:00,
2013-09-25 21:07:00,74.1,71.0,29.82,SW,228,1.0,1.0,90,0.00,,,0.39,weatherlink.com 1.10,2013-09-26 01:07:00,
2013-09-25 21:22:00,73.9,71.0,29.82,SW,224,0.0,0.0,91,0.00,,,0.39,weatherlink.com 1.10,2013-09-26 01:22:00,
2013-09-25 21:37:00,74.1,71.0,29.82,SSW,193,0.0,0.0,91,0.00,,,0.39,weatherlink.com 1.10,2013-09-26 01:37:00,
2013-09-25 21:52:00,74.0,71.0,29.82,SW,224,0.0,0.0,91,0.00,,,0.39,weatherlink.com 1.10,2013-09-26 01:52:00,
2013-09-25 22:07:00,74.0,71.0,29.83,SSW,205,0.0,0.0,91,0.00,,,0.39,weatherlink.com 1.10,2013-09-26 02:07:00,
2013-09-25 22:37:00,74.0,71.0,29.82,SSW,193,0.0,3.0,91,0.00,,,0.39,weatherlink.com 1.10,2013-09-26 02:37:00,
2013-09-25 22:52:00,74.2,72.0,29.82,SSW,207,0.0,3.0,91,0.00,,,0.39,weatherlink.com 1.10,2013-09-26 02:52:00,
2013-09-25 23:07:00,74.3,72.0,29.82,SE,141,2.0,3.0,91,0.00,,,0.39,weatherlink.com 1.10,2013-09-26 03:07:00,
2013-09-25 23:22:00,74.4,72.0,29.82,SW,226,1.0,3.0,91,0.00,,,0.39,weatherlink.com 1.10,2013-09-26 03:22:00,
2013-09-25 23:37:00,74.5,72.0,29.82,SSW,208,0.0,2.0,91,0.00,,,0.39,weatherlink.com 1.10,2013-09-26 03:37:00,
2013-09-25 23:52:00,74.5,72.0,29.82,SSE,163,0.0,4.0,91,0.00,,,0.39,weatherlink.com 1.10,2013-09-26 03:52:00,